Location: Unspecified
(0.0000°N, 0.0000°E)
Time: 06:49:05
(UTC+00:00)

Vanguard 1 - Pass Details

Date: 29 November 2019
Orbit: 652 x 3832 km, 34.3° (Epoch: 10 December)

Event Time Altitude Azimuth Distance (km) Brightness Sun altitude
Rises 18:23:29 0° 251° (WSW) 3,202 15.3 -8.2°
Reaches altitude 10° 18:27:44 10° 216° (SW) 2,640 13.3 -9.2°
Maximum altitude 18:29:38 11° 197° (SSW) 2,738 12.9 -9.6°
Drops below altitude 10° 18:31:48 10° 179° (S) 3,081 12.9 -10.1°
Sets 18:38:23 0° 149° (SSE) 4,852 13.5 -11.6°
